Regional Weather Roundup
Issued by NWS Burlington, VT

Home | Current Version | Previous Version | Text Only | Print | Product List | Glossary On
Versions: 1 2 3 4 5 6 7 8 9 10 11 12 13 14 15 16 17 18 19 20 21 22 23 24 25 26 27 28 29 30 31 32 33 34 35 36 37 38 39 40 41 42 43 44 45 46 47 48 49 50
000
ASUS41 KBTV 172130
RWRBTV
VERMONT REGIONAL WEATHER ROUNDUP
NATIONAL WEATHER SERVICE BURLINGTON VT
500 PM EDT WED SEP 17 2014

NOTE: "FAIR" INDICATES FEW OR NO CLOUDS BELOW 12,000 FEET WITH NO
SIGNIFICANT WEATHER AND/OR OBSTRUCTIONS TO VISIBILITY.

* THESE REPORTS ARE NOT UNDER NWS QUALITY CONTROL AND/OR DO NOT
  REPORT WEATHER SUCH AS PRECIPITATION AND FOG.

VTZ001>019-172200-
_____VERMONT_____


CITY           SKY/WX    TMP DP  RH WIND       PRES   REMARKS
BURLINGTON     MOCLDY    65  43  44 S6        29.93S
MONTPELIER     CLEAR     60  44  55 CALM      29.97F
MORRISVILLE    CLOUDY    63  42  46 VRB3      29.95R
ST. JOHNSBURY*   N/A     64  44  48 MISG      29.91S
MIDDLEBURY*    FAIR      65  44  45 S8        29.94S
RUTLAND*       PTCLDY    63  43  48 SW5       29.95S
SPRINGFIELD    PTCLDY    62  43  49 W5        29.95S
HIGHGATE*      CLOUDY    62  48  58 S3        29.92S
NEWPORT*       FAIR      60  44  55 SW3       29.94S
BENNINGTON     PTCLDY    65  41  41 VRB3      29.96F
SUTTON*          N/A     63 N/A N/A MISG        N/A
MT. MANSFIELD*   N/A     50 N/A N/A W8          N/A

_____LAKE CHAMPLAIN_____


CITY           SKY/WX    TMP DP  RH WIND       PRES   REMARKS
BURTON ISLAND*   N/A     64  48  55 S9          N/A
COLCHESTER RF*   N/A     64  46  52 S15         N/A
DIAMOND ISL*     N/A     64  45  48 SE8         N/A

$$

NYZ007-026>031-035-052-083-172200-
_____NORTHERN NEW YORK_____


CITY           SKY/WX    TMP DP  RH WIND       PRES   REMARKS
PLATTSBURGH    CLOUDY    63  47  55 S5        29.91F
SARANAC LAKE   CLOUDY    57  44  62 SW7       29.94S
MASSENA        MOCLDY    64  51  62 SW15      29.92S
OGDENSBURG*    CLEAR     63  48  59 SW8       29.91F
POTSDAM*       MOCLDY    63  54  72 SW8       29.92F
WATERTOWN      CLEAR     65  46  50 W10G18    29.96R
FT DRUM        CLEAR     63  44  50 W9G16     29.95S
ALBANY         MOCLDY    65  45  48 NW8       29.97S
GLENS FALLS    MOCLDY    67  43  41 W6        29.94S

$$
NHZ002-005-011-172200-
_____NEW HAMPSHIRE_____


CITY           SKY/WX    TMP DP  RH WIND       PRES   REMARKS
LEBANON        PTCLDY    67  40  37 CALM      29.93S
KEENE          MOCLDY    64  39  39 SW5       29.96S
MT WASHINGTON  MOCLDY    39  36  87 W13         N/A
PLYMOUTH       FAIR      66  48  52 CALM      29.93S
WHITEFIELD     CLEAR     65  43  44 W6        29.93F

$$

_____REGIONAL QUEBEC LOCATIONS_____


CITY           SKY/WX    TMP DP  RH WIND       PRES   REMARKS
MONTREAL       CLOUDY    61  50  67 W5        29.90F
QUEBEC CITY    LGT RAIN  52  48  87 S2        29.92
SHERBROOKE     CLOUDY    59  45  58 SW5       29.92S

_____REGIONAL ONTARIO LOCATIONS_____


CITY           SKY/WX    TMP DP  RH WIND       PRES   REMARKS
OTTAWA         MOCLDY    64  48  55 SW9       29.88F

______KEY______
VSB  - VISIBILITY IN MILES
WCI  - WIND CHILL INDEX
HX   - HEAT INDEX
$$
NNNN


USA.gov is the U.S. government's official web portal to all federal, state and local government web resources and services.